STARLINK-4718

operational
NORAD ID: 53773 Int'l Des: 2022-111 Owner: SPXS Country: US Constellation: starlink
LEOCIRCULAR

关于 STARLINK-4718

正在加载描述...

实时位置

正在加载3D地球...

即将过境

高度历史

Altitude vs Time

uPlot chart will show altitude changes over time

两行轨道根数

1 53773U 22111A 25251.57425683 -.00002718 00000-0 -15267-3 0 9991
2 53773 53.2195 21.5890 0001365 90.3241 269.7908 15.08852968166355
Epoch: Sep 8, 2025 • Age: 13 hours

当前状态

高度 545.4 km
速度 7.60 km/s
星下点 53.29°N, 81.53°E
发射日期 Sep 11, 2022
运行时间 2.9 years
类型 internet

技术详情

分类 Payload
质量 305.00 kg
干质量 290.00 kg
总质量 305.00 kg
长度 0.20 m
直径 2.80 m
跨度 9.00 m
形状 Box + pan
制造商 SPXS
平台类型 Starlink
阶段状态 In Orbit
所有者/国家 SPXS/US

大型星座

Loading constellations...